STARLINK-11579, 63143

Orbit data source: Space-Track

STARLINK-11579, 63143 is a payload satellite owned by SpaceX/Seattle (US) in LEO that was launched on Mon, 03 Mar 2025 UTC via an FALCON 9 launch vehicle from the Air Force Eastern Test Range (AFETR). Payload-class satellites include a variety of spacecraft equipped with specific instruments for various scientific and technological missions. These include communications satellites like Starlink; space stations such as the ISS; scientific satellites like the Hubble; Earth observation satellites from companies like Planet Labs, Umbra, and HawkEye 360; GPS; miniature CubeSats for education and research; and military/defense satellites.

Loading next visibility...
Identifier
63143, 2025-043M
Orbit
LEO
Country
Flag of USUS
Related business
Manufacturer
SpaceX/Seattle
Mission
Operational Commercial Communications
Bus & Motor
STARLINK V2MD, Unknown motor
Mass
960 kg wet, ~910 kg dry
Launch date (UTC)
2025-03-03 (11 months ago)
Launch vehicle
FALCON 9
Launch site
Air Force Eastern Test Range (AFETR)
Object type
Payload
Rocket body
Debris
Shape & HBR
Box + 2 Pan, 18.1 m
Radar Cross Section
36.964 m², Large (>1 m²)

Expand to show TLE details & history
Last TLE update: 23 hours ago

TLE from 23 hours ago
0 STARLINK-11579
1 63143U 25043M   26036.50210834  .00158804  00000-0  12137-2 0  9993
2 63143  42.9991  84.3888 0004348 238.4577 121.5866 15.70909164 54298
Epoch: 2026-02-05T12:03Z
TLE epoch observation values (Epoch: 2026-02-05T12:03:02.160Z)
Latitude
-0.00004°
Longitude
127.97634°
Altitude
357.603 km
Speed
7.696 km/s
True Right ascension
05h 37m 33s
True Declination
0° 00' 00"
Sunlit
Object was in full shadow at epoch
Visualization orbit readout
Latitude
Unknown
Longitude
Unknown
Altitude
Unknown
Speed
Unknown
Apparent Right ascension
Unknown
Apparent Declination
Unknown
Sunlit
N/A
Visualization observer readout
Local Sidereal Time
13:29:03
Azimuth
Unknown
Elevation
Unknown
Doppler factor
Unknown
Orbital elements
Apogee altitude
361.208 km
Perigee altitude
355.35 km
Semi-major axis
6,736.416 km
Eccentricity
0.00043
Inclination
42.9991°
RAAN
84.3888°
Arg. of periapsis
238.4577°
True anomaly
121.62903°
Mean anomaly
121.5866°
Eccentric anomaly
121.60782°
Mean motion
3.92554 °/min
Orbital period
91.71 mins
BSTAR
0.0012137
Loading maneuver chart data...
Computing Atmospheric mass density...
Loading historical data...
Loading historical data...
Loading historical data...
Loading historical data...
Loading historical data...
Loading historical data...
Loading historical data...

Documentation

Showing up to 5 results
|